TimeCST,TemperatureF,Dew PointF,Humidity,Sea Level PressureIn,VisibilityMPH,Wind Direction,Wind SpeedMPH,Gust SpeedMPH,PrecipitationIn,Events,Conditions,WindDirDegrees,DateUTC
12:15 AM,28.4,26.6,93,30.06,10.0,SW,8.1,-,N/A,,Scattered Clouds,230,2013-01-17 06:15:00
12:35 AM,30.2,26.6,86,30.07,10.0,SW,10.4,-,N/A,,Overcast,230,2013-01-17 06:35:00
12:55 AM,30.2,24.8,80,30.08,10.0,SW,9.2,-,N/A,,Overcast,230,2013-01-17 06:55:00
1:15 AM,30.2,26.6,86,30.07,10.0,SW,10.4,-,N/A,,Overcast,230,2013-01-17 07:15:00
1:35 AM,32.0,26.6,80,30.09,10.0,WSW,9.2,-,N/A,,Overcast,240,2013-01-17 07:35:00
1:55 AM,32.0,24.8,75,30.10,10.0,WSW,8.1,-,N/A,,Overcast,240,2013-01-17 07:55:00
2:15 AM,32.0,26.6,80,30.10,10.0,West,8.1,-,N/A,,Overcast,270,2013-01-17 08:15:00
2:35 AM,32.0,26.6,80,30.10,10.0,West,8.1,-,N/A,,Overcast,280,2013-01-17 08:35:00
2:55 AM,30.2,24.8,80,30.09,10.0,WNW,9.2,-,N/A,,Overcast,300,2013-01-17 08:55:00
3:15 AM,30.2,28.4,93,30.10,10.0,NW,10.4,-,N/A,,Overcast,310,2013-01-17 09:15:00
3:35 AM,30.2,24.8,80,30.10,10.0,WNW,9.2,-,N/A,,Partly Cloudy,290,2013-01-17 09:35:00
3:55 AM,30.2,26.6,86,30.10,10.0,WNW,8.1,-,N/A,,Clear,290,2013-01-17 09:55:00
4:15 AM,28.4,26.6,93,30.11,10.0,West,5.8,-,N/A,,Clear,280,2013-01-17 10:15:00
4:35 AM,28.4,24.8,86,30.11,10.0,West,4.6,-,N/A,,Clear,270,2013-01-17 10:35:00
4:55 AM,28.4,24.8,86,30.12,8.0,West,3.5,-,N/A,,Clear,270,2013-01-17 10:55:00
5:15 AM,26.6,24.8,93,30.13,7.0,West,5.8,-,N/A,,Clear,260,2013-01-17 11:15:00
5:35 AM,26.6,24.8,93,30.14,8.0,WSW,5.8,-,N/A,,Clear,250,2013-01-17 11:35:00
5:55 AM,26.6,23.0,86,30.15,7.0,West,4.6,-,N/A,,Clear,280,2013-01-17 11:55:00
6:15 AM,26.6,24.8,93,30.15,7.0,WNW,6.9,-,N/A,,Clear,300,2013-01-17 12:15:00
6:35 AM,26.6,24.8,93,30.16,7.0,NW,6.9,-,N/A,,Clear,320,2013-01-17 12:35:00
6:55 AM,26.6,26.6,100,30.17,8.0,NW,5.8,-,N/A,,Clear,320,2013-01-17 12:55:00
7:15 AM,24.8,21.2,86,30.18,5.0,WNW,5.8,-,N/A,,Clear,300,2013-01-17 13:15:00
7:35 AM,26.6,24.8,93,30.19,5.0,WNW,5.8,-,N/A,,Clear,290,2013-01-17 13:35:00
7:55 AM,26.6,21.2,80,30.20,5.0,SW,6.9,-,N/A,,Clear,230,2013-01-17 13:55:00
8:15 AM,26.6,24.8,93,30.20,5.0,SW,6.9,-,N/A,,Clear,230,2013-01-17 14:15:00
8:35 AM,30.2,28.4,93,30.22,5.0,WSW,5.8,-,N/A,,Clear,240,2013-01-17 14:35:00
8:55 AM,30.2,26.6,86,30.22,5.0,West,6.9,-,N/A,,Clear,280,2013-01-17 14:55:00
9:15 AM,32.0,28.4,87,30.23,7.0,WNW,5.8,-,N/A,,Clear,300,2013-01-17 15:15:00
9:35 AM,33.8,28.4,81,30.24,9.0,NNW,9.2,-,N/A,,Clear,330,2013-01-17 15:35:00
9:55 AM,35.6,28.4,75,30.24,10.0,NW,9.2,-,N/A,,Clear,320,2013-01-17 15:55:00
10:15 AM,35.6,28.4,75,30.23,10.0,NW,10.4,-,N/A,,Clear,320,2013-01-17 16:15:00
10:35 AM,35.6,26.6,70,30.23,10.0,NNW,10.4,-,N/A,,Clear,330,2013-01-17 16:35:00
10:55 AM,35.6,28.4,75,30.23,10.0,NNW,10.4,-,N/A,,Clear,330,2013-01-17 16:55:00
11:15 AM,35.6,24.8,65,30.22,10.0,NW,12.7,-,N/A,,Clear,310,2013-01-17 17:15:00
11:35 AM,37.4,26.6,65,30.21,10.0,NW,12.7,-,N/A,,Clear,320,2013-01-17 17:35:00
12:15 PM,37.4,24.8,60,30.20,10.0,NW,15.0,-,N/A,,Clear,320,2013-01-17 18:15:00
12:35 PM,37.4,24.8,60,30.20,10.0,NNW,17.3,-,N/A,,Clear,330,2013-01-17 18:35:00
12:55 PM,37.4,24.8,60,30.19,10.0,NW,13.8,-,N/A,,Clear,320,2013-01-17 18:55:00
1:15 PM,37.4,24.8,60,30.19,10.0,NW,15.0,20.7,N/A,,Clear,320,2013-01-17 19:15:00
1:35 PM,37.4,23.0,56,30.19,10.0,NW,15.0,-,N/A,,Clear,320,2013-01-17 19:35:00
1:55 PM,37.4,23.0,56,30.20,10.0,NW,16.1,23.0,N/A,,Clear,320,2013-01-17 19:55:00
2:15 PM,37.4,21.2,52,30.20,10.0,NW,17.3,-,N/A,,Clear,320,2013-01-17 20:15:00
2:35 PM,35.6,21.2,56,30.20,10.0,NW,18.4,24.2,N/A,,Clear,320,2013-01-17 20:35:00
2:55 PM,35.6,21.2,56,30.21,10.0,NNW,16.1,-,N/A,,Clear,330,2013-01-17 20:55:00
3:15 PM,35.6,21.2,56,30.22,10.0,North,17.3,24.2,N/A,,Clear,350,2013-01-17 21:15:00
3:35 PM,33.8,21.2,60,30.23,10.0,NW,16.1,-,N/A,,Clear,320,2013-01-17 21:35:00
3:55 PM,33.8,19.4,56,30.24,10.0,NNW,16.1,21.9,N/A,,Clear,330,2013-01-17 21:55:00
4:15 PM,32.0,17.6,55,30.25,10.0,NNW,17.3,-,N/A,,Clear,330,2013-01-17 22:15:00
4:35 PM,30.2,17.6,60,30.26,10.0,NNW,15.0,-,N/A,,Clear,330,2013-01-17 22:35:00
4:55 PM,30.2,17.6,60,30.27,10.0,NNW,16.1,24.2,N/A,,Clear,330,2013-01-17 22:55:00
5:15 PM,28.4,17.6,64,30.29,10.0,NNW,16.1,21.9,N/A,,Clear,330,2013-01-17 23:15:00
5:35 PM,28.4,17.6,64,30.29,10.0,NNW,16.1,21.9,N/A,,Clear,340,2013-01-17 23:35:00
5:55 PM,26.6,17.6,69,30.31,10.0,North,15.0,19.6,N/A,,Clear,350,2013-01-17 23:55:00
6:15 PM,26.6,17.6,69,30.32,10.0,NNW,13.8,-,N/A,,Clear,340,2013-01-18 00:15:00
6:35 PM,26.6,17.6,69,30.33,10.0,North,15.0,19.6,N/A,,Clear,360,2013-01-18 00:35:00
6:55 PM,26.6,15.8,64,30.34,10.0,North,15.0,-,N/A,,Clear,350,2013-01-18 00:55:00
7:15 PM,24.8,17.6,74,30.36,10.0,NNW,12.7,-,N/A,,Clear,340,2013-01-18 01:15:00
7:35 PM,24.8,15.8,69,30.36,10.0,NNW,10.4,-,N/A,,Clear,340,2013-01-18 01:35:00
7:55 PM,24.8,15.8,69,30.36,10.0,North,9.2,-,N/A,,Clear,350,2013-01-18 01:55:00
8:15 PM,24.8,15.8,69,30.37,10.0,NNW,6.9,-,N/A,,Clear,340,2013-01-18 02:15:00
8:55 PM,23.0,14.0,68,30.37,10.0,NW,4.6,-,N/A,,Clear,320,2013-01-18 02:55:00
9:15 PM,21.2,15.8,80,30.38,10.0,NW,4.6,-,N/A,,Clear,320,2013-01-18 03:15:00
9:35 PM,21.2,14.0,74,30.38,10.0,WNW,4.6,-,N/A,,Clear,300,2013-01-18 03:35:00
9:55 PM,21.2,15.8,80,30.38,10.0,WNW,4.6,-,N/A,,Clear,290,2013-01-18 03:55:00
10:15 PM,21.2,15.8,80,30.39,10.0,West,4.6,-,N/A,,Clear,280,2013-01-18 04:15:00
10:35 PM,21.2,15.8,80,30.39,10.0,West,5.8,-,N/A,,Clear,270,2013-01-18 04:35:00
10:55 PM,21.2,17.6,86,30.39,10.0,West,6.9,-,N/A,,Clear,260,2013-01-18 04:55:00
11:15 PM,21.2,15.8,80,30.39,10.0,WSW,6.9,-,N/A,,Clear,250,2013-01-18 05:15:00
11:35 PM,21.2,15.8,80,30.39,10.0,West,6.9,-,N/A,,Clear,260,2013-01-18 05:35:00
11:55 PM,19.4,15.8,86,30.40,10.0,WSW,8.1,-,N/A,,Clear,240,2013-01-18 05:55:00